This is the latest recevied weather packets stored in our database for station/object N1TKS. If no packets are shown the sender has not sent any weather packets the latest 10 day(s).
| Time | Temp. | Humidity | Pressure | Rain* | Wind** | Luminosity | Snow |
|---|---|---|---|---|---|---|---|
| 1777513669 | 10.56° C | 84% | 1011.4 hPa | 0 mm | - | - | - |
| 1777513614 | 10.56° C | 84% | 1011.4 hPa | 0 mm | - | - | - |
| 1777513385 | 10.56° C | 84% | 1011.5 hPa | 0 mm | - | - | - |
| 1777513318 | 10.56° C | 84% | 1011.5 hPa | 0 mm | - | - | - |
| 1777513077 | 11.11° C | 82% | 1011.8 hPa | 0 mm | - | - | - |
| 1777513031 | 11.11° C | 82% | 1011.8 hPa | 0 mm | - | - | - |
| 1777513015 | 10.56° C | 83% | 1011.6 hPa | 0 mm | - | - | - |
| 1777512750 | 11.11° C | 83% | 1011.5 hPa | 0 mm | - | - | - |
| 1777512714 | 11.11° C | 83% | 1011.5 hPa | 0 mm | - | - | - |
| 1777512414 | 11.11° C | 83% | 1011.5 hPa | 0 mm | - | - | - |
| 1777511814 | 11.11° C | 82% | 1011.8 hPa | 0 mm | - | - | - |
| 1777511548 | 11.11° C | 82% | 1011.9 hPa | 0 mm | - | - | - |
| 1777511514 | 11.11° C | 82% | 1011.9 hPa | 0 mm | - | - | - |
| 1777511214 | 11.11° C | 82% | 1011.8 hPa | 0 mm | - | - | - |
| 1777511111 | 11.67° C | 81% | 1011.8 hPa | 0 mm | - | - | - |
| 1777511097 | 11.67° C | 80% | 1011.7 hPa | 0 mm | - | - | - |
| 1777510913 | 11.11° C | 82% | 1011.9 hPa | 0 mm | - | - | - |
| 1777510014 | 11.67° C | 81% | 1011.7 hPa | 0 mm | - | - | - |
| 1777509791 | 11.67° C | 81% | 1011.8 hPa | 0 mm | - | - | - |
| 1777509714 | 11.67° C | 81% | 1011.8 hPa | 0 mm | - | - | - |
| 1777509414 | 11.67° C | 80% | 1011.7 hPa | 0 mm | - | - | - |
| 1777509125 | 11.67° C | 80% | 1011.7 hPa | 0 mm | - | - | - |
| 1777509110 | 12.22° C | 79% | 1011.8 hPa | 0 mm | - | - | - |
| 1777509106 | 12.22° C | 78% | 1011.8 hPa | 0 mm | - | - | - |
| 1777508814 | 11.67° C | 79% | 1011.6 hPa | 0 mm | - | - | - |
* Rain latest hour (hover to see other rain measurements)
** Current wind speed in m/s (hover to see current wind gust speed)